Regional Weather Roundup
Issued by NWS Jackson, KY

Home | Current Version | Previous Version | Text Only | Print | Product List | Glossary Off
Versions: 1 2 3 4 5 6 7 8 9 10 11 12 13 14 15 16 17 18 19 20 21 22 23 24 25 26 27 28 29 30 31 32 33 34 35 36 37 38 39 40 41 42 43 44 45 46 47 48 49 50

000
ASUS43 KJKL 022210
RWRJKL

EAST KENTUCKY HOURLY WEATHER ROUNDUP
NATIONAL WEATHER SERVICE JACKSON KY
600 PM EDT SUN AUG 02 2015

NOTE: "FAIR" INDICATES FEW OR NO CLOUDS BELOW 12,000 FEET WITH
NO SIGNIFICANT WEATHER AND/OR OBSTRUCTIONS TO VISIBILITY.

* THESE REPORTS ARE NOT UNDER NWS QUALITY CONTROL AND MAY NOT
  REPORT WEATHER SUCH AS PRECIPITATION AND FOG.

KYZ079-080-083-085-087-088-110-112-115-119-120-022300
...EASTERN KENTUCKY...

CITY           SKY/WX    TMP DP  RH WIND       PRES   REMARKS
JACKSON        SUNNY     84  60  44 CALM      29.99F
LONDON         PTSUNNY   87  56  34 NE7       29.98S
SOMERSET*      SUNNY     81  55  41 CALM      29.97S
MONTICELLO*    SUNNY     88  63  43 CALM      29.99S
MIDDLESBORO*   SUNNY     87  58  37 S5        29.97S
HAZARD APT*    MOCLDY    86  59  39 CALM      29.98
BLACK MTN*       N/A     73  55  53 CALM        N/A
PIKEVILLE APT* SUNNY     81  59  47 NE3       30.00F
BIG SANDY*     MOCLDY    84  62  46 CALM      29.99S
MOREHEAD APT*  CLEAR     84  59  42 CALM      29.99F
$$

KYZ035-036-041-042-044-050-067-078-099-022300
...CENTRAL KENTUCKY...

CITY           SKY/WX    TMP DP  RH WIND       PRES   REMARKS
MT STERLING*   SUNNY     84  63  48 CALM      29.98F
FLEMING/MASON* SUNNY     84  61  45 SW8       29.97F
DANVILLE*      SUNNY     84  61  45 S3        29.98S
RICHMOND*      SUNNY     84  57  39 CALM      29.96F
LEXINGTON      SUNNY     86  57  37 W3        29.96F
FRANKFORT      SUNNY     85  58  39 VRB5      29.94F
$$

KYZ091>093-OHZ055-061-077-WVZ005-015-034-035-042-022300
...SOUTHERN OHIO/WEST VIRGINIA...

CITY           SKY/WX    TMP DP  RH WIND       PRES   REMARKS
COVINGTON      MOSUNNY   85  62  46 S9        29.93F
COLUMBUS       MOSUNNY   87  61  41 SW14G23   29.89F
DAYTON         MOSUNNY   85  61  44 SW17      29.90F
WILMINGTON     SUNNY     83  61  47 S12       29.92F
HUNTINGTON     MOSUNNY   84  60  44 S5        29.96F
CHARLESTON     MOSUNNY   83  58  42 SE3       29.96F
PINEVILLE*     SUNNY     78  63  61 MISG      30.06F
BECKLEY        SUNNY     79  52  38 VRB6      30.06F
BLUEFIELD      SUNNY     79  52  38 CALM      30.08F
$$

VAZ002-007-008-TNZ017-027-036-066-071-022300
...SOUTHWEST VIRGINIA/EAST TENNESSEE...

CITY           SKY/WX    TMP DP  RH WIND       PRES   REMARKS
WISE*          SUNNY     81  46  30 CALM      30.07S
ABINGDON*      SUNNY     84  48  28 E3        30.02S
BRISTOL        MOSUNNY   88  50  27 CALM      29.97F
KNOXVILLE      MOSUNNY   89  58  34 VRB3      29.93F
OAK RIDGE      SUNNY     91  56  30 VRB3      29.95F
CROSSVILLE     MOSUNNY   83  54  36 SW3       30.00F
NASHVILLE      MOSUNNY   89  53  29 SE6       29.94F
$$

...KEY TO REMARKS...
VSB - VISIBILITY IN MILES
WCI - WIND CHILL INDEX
HX  - HEAT INDEX

$$


USA.gov is the U.S. government's official web portal to all federal, state and local government web resources and services.